Home > Weather > Belo Horizonte > Past weeks

Flag for Brazil Past Weather in Belo Horizonte, Minas Gerais, Brazil — Yesterday and Last 2 Weeks

Now
61 °F

Passing clouds.


Feels Like: 61 °F
Forecast: 60 / 76 °F
Wind: 9 mph from East

Location: Belo Horizonte Airport

Current Time: Jul 1, 2016 at 6:49:17 AM

Latest Report: Jul 1, 2016 at 6:00 AM


Visibility: N/A

Pressure: 30.30 "Hg (27.37 "Hg at 860m altitude)

Humidity: 88%

Dew Point: 57 °F

Location of Belo HorizonteLocation

Past Weather in Belo Horizonte — Graph

°F

Belo Horizonte Temperature Yesterday

Maximum temperature yesterday: 70 °F (at 4:00 PM)
Minimum temperature yesterday: 61 °F (at 3:00 AM)
Average temperature yesterday: 65 °F

High & Low Weather Summary for the Past Weeks

 TemperatureHumidityPressure
High79 °F (Jun 18, 3:00 PM)100% (Jun 27, 12:00 AM)30.42 "Hg (Jun 27, 12:00 AM)
Low52 °F (Jun 16, 5:00 AM)28% (Jun 18, 2:00 PM)30.15 "Hg (Jun 17, 3:00 PM)
Average64 °F69%30.26 "Hg
* Reported Jun 16 5:00 AM — Jul 1 5:00 AM, Belo Horizonte, Weather by CustomWeather, © 2016

Note: Actual official high and low records may vary slightly from our data, if they occured in-between our weather recording intervals... More about our weather records

Advertising

Belo Horizonte Weather History for the Previous 24 Hours

Scroll right to see more
 ConditionsComfort  
Time TempWeatherWind HumidityBarometerVisibility
5:00 AM
Fri, Jul 1
59 °FPassing clouds.6 mph88%30.27 "HgN/A
4:00 AM59 °FPassing clouds.6 mph88%30.27 "HgN/A
3:00 AM59 °FPassing clouds.6 mph88%30.27 "HgN/A
2:00 AM59 °FClear.6 mph88%30.30 "Hg10 mi
1:00 AM63 °FClear.8 mph77%30.30 "Hg10 mi
12:00 AM63 °FClear.10 mph77%30.30 "Hg10 mi
11:00 PM
Thu, Jun 30
63 °FClear.12 mph77%30.30 "Hg10 mi
10:00 PM63 °FClear.12 mph77%30.30 "Hg10 mi
9:00 PM63 °FClear.10 mph83%30.30 "Hg10 mi
8:00 PM64 °FPassing clouds.9 mph78%30.30 "HgN/A
7:00 PM64 °FPassing clouds.9 mph78%30.30 "HgN/A
6:00 PM66 °FPassing clouds.12 mph68%30.30 "HgN/A
5:00 PM68 °FPartly sunny.12 mph69%30.27 "HgN/A
4:00 PM70 °FPartly sunny.8 mph69%30.27 "HgN/A
3:00 PM68 °FPartly sunny.8 mph73%30.27 "HgN/A
2:00 PM68 °FBroken clouds.10 mph69%30.27 "HgN/A
1:00 PM68 °FBroken clouds.10 mph73%30.30 "HgN/A
12:00 PM68 °FBroken clouds.13 mph69%30.33 "HgN/A
11:00 AM68 °FBroken clouds.13 mph69%30.36 "HgN/A
10:00 AM66 °FBroken clouds.12 mph73%30.36 "HgN/A
9:00 AM64 °FPartly sunny.9 mph78%30.36 "HgN/A
8:00 AM63 °FPartly sunny.9 mph83%30.33 "HgN/A
7:00 AM61 °FPartly sunny.6 mph88%30.30 "HgN/A
6:00 AM61 °FFog.9 mph88%30.27 "Hg2 mi
Weather by CustomWeather, © 2016

See weather overviewHow to use our weather pages